STARLINK-37026, 68075

Orbit data source: Space-Track

STARLINK-37026, 68075 is a payload satellite owned by SpaceX/Seattle (US) in LEO that was launched on Wed, 04 Mar 2026 UTC via an FALCON 9 launch vehicle from the Air Force Eastern Test Range (AFETR). Payload-class satellites include a variety of spacecraft equipped with specific instruments for various scientific and technological missions. These include communications satellites like Starlink; space stations such as the ISS; scientific satellites like the Hubble; Earth observation satellites from companies like Planet Labs, Umbra, and HawkEye 360; GPS; miniature CubeSats for education and research; and military/defense satellites.

Loading next visibility...
Identifier
68075, 2026-042G
Orbit
LEO
Country
Flag of USUS
Related business
Manufacturer
SpaceX/Seattle
Mission
Operational spacecraft
Bus & Motor
STARLINK V2MO, Unknown motor
Mass
575 kg wet, ~530 kg dry
Launch date (UTC)
2026-03-04 (1 month ago)
Launch vehicle
FALCON 9
Launch site
Air Force Eastern Test Range (AFETR)
Object type
Payload
Rocket body
Debris
Shape & HBR
Unknown shape, 17.7 m
Radar Cross Section
RCS unknown

Expand to show TLE details & history
Last TLE update: 11 hours ago

TLE from 11 hours ago
0 STARLINK-37026
1 68075U 26042G   26102.09760379  .00184790  00000-0  11774-2 0  9993
2 68075  53.1567  28.3319 0001159  63.2621 296.8517 15.75357797  7356
Epoch: 2026-04-12T02:20Z
TLE epoch observation values (Epoch: 2026-04-12T02:20:32.967Z)
Latitude
-0.00009°
Longitude
152.88703°
Altitude
344.178 km
Speed
7.704 km/s
True Right ascension
01h 53m 19s
True Declination
0° 00' 00"
Sunlit
Object was in daylight at epoch
Visualization orbit readout
Latitude
Unknown
Longitude
Unknown
Altitude
Unknown
Speed
Unknown
Apparent Right ascension
Unknown
Apparent Declination
Unknown
Sunlit
N/A
Visualization observer readout
Local Sidereal Time
19:44:22
Azimuth
Unknown
Elevation
Unknown
Doppler factor
Unknown
Orbital elements
Apogee altitude
344.654 km
Perigee altitude
343.096 km
Semi-major axis
6,722.012 km
Eccentricity
0.00012
Inclination
53.1567°
RAAN
28.3319°
Arg. of periapsis
63.2621°
True anomaly
296.83985°
Mean anomaly
296.8517°
Eccentric anomaly
296.84578°
Mean motion
3.93817 °/min
Orbital period
91.41 mins
BSTAR
0.0011774
Loading maneuver chart data...
Computing Atmospheric mass density...
Loading historical data...
Loading historical data...
Loading historical data...
Loading historical data...
Loading historical data...
Loading historical data...
Loading historical data...

Documentation

Showing up to 5 results
|